This is the latest recevied weather packets stored in our database for station/object BM1CKC-10. If no packets are shown the sender has not sent any weather packets the latest 10 day(s).
| Time | Temp. | Humidity | Pressure | Rain* | Wind** | Luminosity | Snow |
|---|---|---|---|---|---|---|---|
| 1777871398 | 27.78° C | 55% | 1011.4 hPa | - | - | - | - |
| 1777870198 | 27.78° C | 55% | 1011.6 hPa | - | - | - | - |
| 1777868997 | 27.78° C | 55% | 1011.8 hPa | - | - | - | - |
| 1777867798 | 27.78° C | 55% | 1011.6 hPa | - | - | - | - |
| 1777866598 | 27.78° C | 55% | 1012 hPa | - | - | - | - |
| 1777864198 | 27.78° C | 57% | 1012.2 hPa | - | - | - | - |
| 1777847399 | 23.89° C | 55% | 1012.2 hPa | - | - | - | - |
| 1777841399 | 25.56° C | 57% | 1010.4 hPa | - | - | - | - |
| 1777831798 | 25.56° C | 57% | 1008.7 hPa | - | - | - | - |
| 1777826998 | 25.56° C | 57% | 1008.8 hPa | - | - | - | - |
| 1777819798 | 25.56° C | 54% | 1007.9 hPa | - | - | - | - |
| 1777811399 | 29.44° C | 63% | 1005.5 hPa | - | - | - | - |
| 1777802999 | 28.89° C | 64% | 1003.7 hPa | - | - | - | - |
| 1777800597 | 28.89° C | 62% | 1003 hPa | - | - | - | - |
| 1777799398 | 29.44° C | 61% | 1002.8 hPa | - | - | - | - |
| 1777796998 | 28.89° C | 62% | 1002.6 hPa | - | - | - | - |
| 1777795798 | 28.89° C | 62% | 1002.5 hPa | - | - | - | - |
| 1777793398 | 30.56° C | 58% | 1002.4 hPa | - | - | - | - |
| 1777792208 | 28.89° C | 62% | 1002.5 hPa | - | - | - | - |
| 1777790998 | 28.89° C | 61% | 1002.8 hPa | - | - | - | - |
| 1777789807 | 29.44° C | 62% | 1002.9 hPa | - | - | - | - |
| 1777788598 | 29.44° C | 60% | 1003.2 hPa | - | - | - | - |
| 1777787398 | 28.89° C | 61% | 1003.1 hPa | - | - | - | - |
| 1777786197 | 28.89° C | 63% | 1003.5 hPa | - | - | - | - |
| 1777784998 | 28.89° C | 61% | 1003.7 hPa | - | - | - | - |
* Rain since midnight (hover to see other rain measurements)
** Current wind speed in m/s (hover to see current wind gust speed)